Starlink 4799

operational
NORAD ID: 53860 Int'l Des: 2022-114 Owner: SPXS Country: US Constellation: starlink
LEOCIRCULAR

Starlink 4799について

説明を読み込み中...

リアルタイム位置

3D地球を読み込み中...

次回通過

高度履歴

Altitude vs Time

uPlot chart will show altitude changes over time

軌道要素

1 53860U 22114AU 26063.47944544 .00003068 00000-0 21084-3 0 9995
2 53860 53.2168 307.6262 0001398 88.9318 271.1835 15.08824136192088
Epoch: Mar 4, 2026 • Age: 18 hours

現在のステータス

高度 541.9 km
速度 7.60 km/s
衛星直下点 36.26°N, 13.99°E
打ち上げ日 Sep 19, 2022
運用期間 3.4 years
タイプ internet

技術仕様

分類 Payload
質量 305.00 kg
乾燥質量 290.00 kg
総質量 305.00 kg
長さ 0.20 m
直径 2.80 m
スパン 9.00 m
形状 Box + pan
製造者 SPXS
バスタイプ Starlink
フェーズステータス In Orbit
所有者/国 SPXS/US

大規模コンステレーション

Loading constellations...